Showing default

PROMETHEUS 2-3, 41855

Orbit data source: Space-Track

PROMETHEUS 2-3, 41855 is a payload satellite owned by SOCOM (US) in SSO that was launched on Fri, 11 Nov 2016 UTC via an ATLAS V 401 launch vehicle from the Air Force Western Test Range (AFWTR). Payload-class satellites include a variety of spacecraft equipped with specific instruments for various scientific and technological missions. These include communications satellites like Starlink; space stations such as the ISS; scientific satellites like the Hubble; Earth observation satellites from companies like Planet Labs, Umbra, and HawkEye 360; GPS; miniature CubeSats for education and research; and military/defense satellites.

Loading next visibility...
Identifier
41855, 2016-067H
Orbit
SSO
Country
Flag of USUS
Related business
Manufacturer
LANL
Mission
Operational Defense Communications
Bus & Motor
CUBESAT 1.5U, Unknown motor
Mass
2 kg wet, 2 kg dry
Launch date (UTC)
2016-11-11 (9 years ago)
Launch vehicle
ATLAS V 401
Launch site
Air Force Western Test Range (AFWTR)
Object type
Payload
Rocket body
Debris
Shape & HBR
Box + 2 Pan, 0.1 m
Radar Cross Section
0.015 m², Small (<0.1 m²)

Expand to show TLE details & history
Last TLE update: 16 hours ago

TLE from 16 hours ago
0 PROMETHEUS 2-3
1 41855U 16067H   25259.58149577  .00086541  00000-0  10800-2 0  9997
2 41855  98.0527 124.2763 0002508 223.9129 136.1926 15.59582003485771
Epoch: 2025-09-16T13:57Z
TLE epoch observation values (Epoch: 2025-09-16T13:57:21.234Z)
Latitude
-0.00008°
Longitude
-80.8319°
Altitude
393.215 km
Speed
7.674 km/s
True Right ascension
08h 17m 06s
True Declination
0° 00' 00"
Sunlit
Object was in daylight at epoch
Visualization orbit readout
Latitude
Unknown
Longitude
Unknown
Altitude
Unknown
Speed
Unknown
Apparent Right ascension
Unknown
Apparent Declination
Unknown
Sunlit
N/A
Visualization observer readout
Local Sidereal Time
23:00:54
Azimuth
Unknown
Elevation
Unknown
Doppler factor
Unknown
Orbital elements
Apogee altitude
387.505 km
Perigee altitude
384.112 km
Semi-major axis
6,763.946 km
Eccentricity
0.00025
Inclination
98.0527°
RAAN
124.2763°
Arg. of periapsis
223.9129°
True anomaly
136.21249°
Mean anomaly
136.1926°
Eccentric anomaly
136.20255°
Mean motion
3.9016 °/min
Orbital period
92.27 mins
BSTAR
0.00108
Loading maneuver chart data...
Computing Atmospheric mass density...
Loading historical data...
Loading historical data...
Loading historical data...
Loading historical data...
Loading historical data...
Loading historical data...
Loading historical data...

Documentation

Showing up to 5 results
|